Previsão horária em Aalst

Hoje, 14 Abril, Quarta-feira

Tempo Temperatura Precipitação Vento Pressão Humidade
00:00 +2°C° 0 mm 1 m/s 772 mmHg 58%
01:00 +2°C° 0 mm 1 m/s 772 mmHg 59%
02:00 +1°C° 0 mm 0 m/s 772 mmHg 60%
03:00 0°C° 0 mm 0 m/s 772 mmHg 61%
04:00 +1°C° 0 mm 0 m/s 772 mmHg 61%
05:00 +1°C° 0 mm 0 m/s 772 mmHg 62%
06:00 +2°C° 0 mm 0 m/s 772 mmHg 62%
07:00 +4°C° 0 mm 0 m/s 772 mmHg 57%
08:00 +7°C° 0 mm 1 m/s 772 mmHg 52%
09:00 +8°C° 0 mm 1 m/s 772 mmHg 47%
10:00 +8°C° 0 mm 2 m/s 772 mmHg 45%
11:00 +9°C° 0 mm 2 m/s 771 mmHg 43%
12:00 +9°C° 0 mm 3 m/s 771 mmHg 41%
13:00 +8°C° 0 mm 4 m/s 771 mmHg 43%
14:00 +8°C° 0 mm 4 m/s 771 mmHg 45%
15:00 +8°C° 0 mm 5 m/s 770 mmHg 47%
16:00 +7°C° 0.1 mm 5 m/s 771 mmHg 53%
17:00 +6°C° 0.1 mm 5 m/s 771 mmHg 58%
18:00 +5°C° 0.1 mm 5 m/s 771 mmHg 64%
19:00 +4°C° 0 mm 4 m/s 771 mmHg 69%
20:00 +3°C° 0 mm 4 m/s 771 mmHg 74%
21:00 +2°C° 0 mm 3 m/s 771 mmHg 79%
22:00 +1°C° 0 mm 3 m/s 771 mmHg 81%
23:00 +1°C° 0 mm 3 m/s 771 mmHg 83%

Amanhã, 15 Abril, Quinta-feira

Tempo Temperatura Precipitação Vento Pressão Humidade
00:00 0°C° 0 mm 3 m/s 771 mmHg 85%
01:00 +1°C° 0 mm 2 m/s 771 mmHg 87%
02:00 +1°C° 0 mm 2 m/s 771 mmHg 88%
03:00 +1°C° 0 mm 2 m/s 771 mmHg 89%
04:00 +1°C° 0 mm 2 m/s 771 mmHg 88%
05:00 +3°C° 0 mm 1 m/s 771 mmHg 87%
06:00 +3°C° 0 mm 1 m/s 771 mmHg 86%
07:00 +4°C° 0.1 mm 2 m/s 771 mmHg 80%
08:00 +5°C° 0.1 mm 2 m/s 771 mmHg 75%
09:00 +6°C° 0.1 mm 2 m/s 771 mmHg 69%
10:00 +7°C° 0.1 mm 3 m/s 771 mmHg 61%
11:00 +8°C° 0.1 mm 3 m/s 770 mmHg 53%
12:00 +9°C° 0.1 mm 3 m/s 770 mmHg 46%
13:00 +8°C° 0 mm 4 m/s 770 mmHg 46%
14:00 +8°C° 0 mm 4 m/s 770 mmHg 47%
15:00 +8°C° 0 mm 4 m/s 769 mmHg 48%
16:00 +7°C° 0 mm 4 m/s 770 mmHg 52%
17:00 +6°C° 0 mm 4 m/s 770 mmHg 56%
18:00 +5°C° 0 mm 3 m/s 770 mmHg 60%
19:00 +5°C° 0 mm 3 m/s 770 mmHg 63%
20:00 +4°C° 0 mm 3 m/s 770 mmHg 65%
21:00 +3°C° 0 mm 3 m/s 770 mmHg 68%
22:00 +2°C° 0 mm 3 m/s 770 mmHg 72%
23:00 +2°C° 0 mm 3 m/s 770 mmHg 75%

Depois de amanhã, 16 Abril, Sexta-feira

Tempo Temperatura Precipitação Vento Pressão Humidade
00:00 +1°C° 0 mm 3 m/s 770 mmHg 79%
01:00 +1°C° 0 mm 3 m/s 770 mmHg 81%
02:00 0°C° 0 mm 3 m/s 770 mmHg 82%
03:00 +1°C° 0 mm 2 m/s 770 mmHg 83%
04:00 +1°C° 0 mm 2 m/s 770 mmHg 82%
05:00 +2°C° 0 mm 2 m/s 770 mmHg 81%
06:00 +2°C° 0 mm 2 m/s 770 mmHg 81%
07:00 +3°C° 0 mm 3 m/s 770 mmHg 72%
08:00 +5°C° 0 mm 4 m/s 770 mmHg 63%
09:00 +6°C° 0 mm 4 m/s 770 mmHg 55%
10:00 +7°C° 0 mm 5 m/s 770 mmHg 51%
11:00 +8°C° 0 mm 5 m/s 769 mmHg 46%
12:00 +10°C° 0 mm 5 m/s 769 mmHg 42%
13:00 +9°C° 0 mm 5 m/s 769 mmHg 44%
14:00 +9°C° 0 mm 5 m/s 768 mmHg 47%
15:00 +9°C° 0 mm 5 m/s 768 mmHg 49%
16:00 +10°C° 0 mm 4 m/s 768 mmHg 54%
17:00 +8°C° 0 mm 4 m/s 768 mmHg 59%
18:00 +7°C° 0 mm 4 m/s 768 mmHg 64%
19:00 +6°C° 0 mm 4 m/s 768 mmHg 67%
20:00 +5°C° 0 mm 4 m/s 768 mmHg 71%
21:00 +5°C° 0 mm 4 m/s 769 mmHg 74%
22:00 +4°C° 0 mm 3 m/s 769 mmHg 76%
23:00 +3°C° 0 mm 3 m/s 768 mmHg 78%

17 Abril, Sábado

Tempo Temperatura Precipitação Vento Pressão Humidade
00:00 +2°C° 0 mm 3 m/s 768 mmHg 80%
01:00 +2°C° 0 mm 3 m/s 768 mmHg 81%
02:00 +2°C° 0 mm 3 m/s 768 mmHg 82%
03:00 +1°C° 0 mm 3 m/s 768 mmHg 82%
04:00 +1°C° 0 mm 3 m/s 768 mmHg 82%
05:00 +3°C° 0 mm 2 m/s 768 mmHg 81%
06:00 +3°C° 0 mm 2 m/s 768 mmHg 80%
07:00 +4°C° 0 mm 3 m/s 768 mmHg 71%
08:00 +7°C° 0 mm 3 m/s 768 mmHg 62%
09:00 +8°C° 0 mm 4 m/s 768 mmHg 53%
10:00 +10°C° 0 mm 4 m/s 768 mmHg 50%
11:00 +11°C° 0 mm 4 m/s 767 mmHg 46%
12:00 +12°C° 0 mm 4 m/s 767 mmHg 43%
13:00 +12°C° 0 mm 4 m/s 767 mmHg 44%
14:00 +12°C° 0 mm 4 m/s 766 mmHg 46%
15:00 +12°C° 0 mm 5 m/s 766 mmHg 48%
16:00 +10°C° 0 mm 5 m/s 766 mmHg 53%
17:00 +9°C° 0 mm 5 m/s 766 mmHg 59%
18:00 +7°C° 0 mm 4 m/s 766 mmHg 64%
19:00 +6°C° 0 mm 4 m/s 766 mmHg 69%
20:00 +5°C° 0 mm 3 m/s 767 mmHg 75%
21:00 +4°C° 0 mm 3 m/s 767 mmHg 80%
22:00 +5°C° 0 mm 2 m/s 767 mmHg 80%
23:00 +5°C° 0 mm 2 m/s 766 mmHg 81%

18 Abril, Domingo

Tempo Temperatura Precipitação Vento Pressão Humidade
00:00 +4°C° 0 mm 2 m/s 766 mmHg 81%
01:00 +4°C° 0 mm 2 m/s 766 mmHg 82%
02:00 +4°C° 0 mm 2 m/s 766 mmHg 82%
03:00 +4°C° 0 mm 2 m/s 766 mmHg 83%
04:00 +5°C° 0 mm 1 m/s 766 mmHg 82%
05:00 +6°C° 0 mm 1 m/s 766 mmHg 81%
06:00 +6°C° 0 mm 1 m/s 766 mmHg 81%
07:00 +7°C° 0 mm 1 m/s 766 mmHg 75%
08:00 +8°C° 0 mm 1 m/s 766 mmHg 69%
09:00 +9°C° 0 mm 2 m/s 766 mmHg 63%
10:00 +9°C° 0 mm 2 m/s 765 mmHg 59%
11:00 +10°C° 0 mm 2 m/s 765 mmHg 55%
12:00 +12°C° 0 mm 2 m/s 765 mmHg 51%
13:00 +12°C° 0 mm 2 m/s 764 mmHg 50%
14:00 +12°C° 0 mm 2 m/s 764 mmHg 48%
15:00 +11°C° 0 mm 3 m/s 764 mmHg 47%
16:00 +10°C° 0 mm 3 m/s 764 mmHg 52%
17:00 +9°C° 0 mm 3 m/s 764 mmHg 56%
18:00 +8°C° 0 mm 2 m/s 764 mmHg 61%
19:00 +7°C° 0 mm 2 m/s 764 mmHg 65%
20:00 +6°C° 0 mm 2 m/s 764 mmHg 69%
21:00 +4°C° 0 mm 2 m/s 764 mmHg 72%
22:00 +4°C° 0 mm 2 m/s 764 mmHg 74%
23:00 +4°C° 0 mm 1 m/s 764 mmHg 75%

19 Abril, Segunda-feira

Tempo Temperatura Precipitação Vento Pressão Humidade
00:00 +4°C° 0 mm 1 m/s 764 mmHg 76%
01:00 +4°C° 0 mm 1 m/s 764 mmHg 77%
02:00 +3°C° 0 mm 1 m/s 763 mmHg 78%
03:00 +2°C° 0 mm 0 m/s 763 mmHg 79%
04:00 +3°C° 0 mm 0 m/s 763 mmHg 78%
05:00 +3°C° 0 mm 0 m/s 763 mmHg 77%
06:00 +4°C° 0 mm 0 m/s 763 mmHg 77%
07:00 +7°C° 0 mm 1 m/s 762 mmHg 73%
08:00 +9°C° 0 mm 1 m/s 762 mmHg 69%
09:00 +11°C° 0 mm 1 m/s 762 mmHg 65%
10:00 +12°C° 0 mm 1 m/s 762 mmHg 60%
11:00 +13°C° 0 mm 1 m/s 761 mmHg 55%
12:00 +14°C° 0 mm 1 m/s 761 mmHg 50%
13:00 +14°C° 0 mm 1 m/s 760 mmHg 52%
14:00 +14°C° 0 mm 1 m/s 760 mmHg 53%
15:00 +14°C° 0 mm 1 m/s 760 mmHg 54%
16:00 +13°C° 0 mm 1 m/s 759 mmHg 58%
17:00 +12°C° 0 mm 2 m/s 759 mmHg 61%
18:00 +12°C° 0 mm 2 m/s 759 mmHg 65%
19:00 +10°C° 0 mm 2 m/s 759 mmHg 67%
20:00 +11°C° 0 mm 1 m/s 759 mmHg 70%
21:00 +10°C° 0 mm 1 m/s 759 mmHg 72%
22:00 +10°C° 0 mm 1 m/s 759 mmHg 72%
23:00 +10°C° 0 mm 1 m/s 759 mmHg 71%
Mostrar mais

Necessitamos do seu Consentimento

A Meteoprog e os seus Fornecedores de Serviços podem armazenar e aceder a dados pessoais como cookies, identificadores do dispositivo ou outras tecnologias semelhantes existentes no seu dispositivo e processar estes dados para personalizar conteúdos e anúncios, assim como funcionalidades nas redes sociais e análise de tráfego.

  • Armazenar e/ou aceder a informações no seu dispositivo

    Os cookies, identificadores do dispositivo ou outras informações podem ser armazenados ou acedidos no seu dispositivo, para os fins acima indicados.

  • Anúncios e conteúdos personalizados, medição de anúncios e conteúdos, dados sobre o público-alvo e desenvolvimento de produtos

    Os anúncios e os conteúdos podem ser personalizados com base num perfil. Podem ser adicionados dados adicionais para uma maior personalização dos anúncios e dos conteúdos. A eficácia dos anúncios e dos conteúdos pode ser medida. Podem ser obtidas informações sobre o público que visualizou os anúncios e os conteúdos. Estes dados podem ser usados para desenvolver ou melhorar sistemas, softwares ou a experiência do utilizador.

Ao clicar em "Eu concordo”, permitirá o uso de cookies, identificadores do dispositivo e web beacons mencionados ou outras tecnologias semelhantes. As configurações do navegador do seu dispositivo podem ser alteradas.

Para certos fins, podem ser invocados interesses legítimos ao invés de consentimento. Pode ler mais informação sobre este assunto na nossa Política de Privacidade e Cookies.